Regional Weather Roundup
Issued by NWS

Home | Current Version | Previous Version | Graphics & Text | Print | Product List | Glossary On
Versions: 1 2 3 4 5 6 7 8 9 10 11 12 13 14 15 16 17 18 19 20 21 22 23 24 25 26 27 28 29 30 31 32 33 34 35 36 37 38 39 40 41 42 43 44 45 46 47 48 49 50
000
ASUS43 KIND 290559
RWRIN

WEATHER ROUNDUP FOR INDIANA
NATIONAL WEATHER SERVICE INDIANAPOLIS IN
200 AM EDT WED MAR 29 2017

NOTE: "FAIR" INDICATES FEW OR NO CLOUDS BELOW 12,000 FEET WITH NO
SIGNIFICANT WEATHER AND/OR OBSTRUCTIONS TO VISIBILITY.

* - STATION DOES NOT REPORT WEATHER SUCH AS PRECIPITATION OR FOG.

+ - STATION NOT QUALITY CONTROLLED BY THE NATIONAL WEATHER SERVICE.
    USE DATA WITH CAUTION...ESPECIALLY DEWPOINT AND RELATIVE
    HUMIDITY OBSERVATIONS.

INZ001>003-010>013-019-020-290700-
NORTHWEST INDIANA

CITY           SKY/WX    TMP DP  RH WIND       PRES   REMARKS
MICHIGAN CITY+ FOG       36  36 100 CALM      30.24R VSB 1/4
MONTICELLO +   CLOUDY    46  42  87 NE5       30.18S
6HR MIN TEMP:  44; 6HR MAX TEMP:  46;


$$

LMZ046-743>745-290700-
SOUTHERN LAKE MICHIGAN

STATION/POSITION TIME  TEMP    WIND        PRES    WAVE
                       AIR SEA DIR/SP/G            HT
                 (UTC) (F)     (DEG/KT/KT) (MB)    (FT)
BURNS HARBOR     0540   35      40/ 11/ 13 1023.7S
MICHIGAN CITY    0530   35      30/ 13/ 14   N/A

$$

INZ004-005-014>016-021>024-290700-
NORTH CENTRAL INDIANA

CITY           SKY/WX    TMP DP  RH WIND       PRES   REMARKS
GOSHEN         CLEAR     37  34  89 NE5       30.22R
6HR MIN TEMP:  37; 6HR MAX TEMP:  47;

PERU/GRISSOM   CLOUDY    46  46 100 NE10      30.16S
SOUTH BEND     CLEAR     36  35  96 NE3       30.22S
6HR MIN TEMP:  35; 6HR MAX TEMP:  43;


$$

INZ006>009-017-018-025>027-290700-
NORTHEAST INDIANA

CITY           SKY/WX    TMP DP  RH WIND       PRES   REMARKS
ANGOLA *+      CLEAR     34  34 100 CALM      30.20S
FORT WAYNE     MOCLDY    44  39  82 NE7       30.20S
6HR MIN TEMP:  44; 6HR MAX TEMP:  49;

KENDALLVILLE + CLEAR     37  36  94 SE3       30.21S

$$

INZ028-029-035-036-043>045-051>053-290700-
WEST CENTRAL INDIANA

CITY           SKY/WX    TMP DP  RH WIND       PRES   REMARKS
CRAWFORDSVL +  CLOUDY    46  44  95 NE8       30.15F
6HR MIN TEMP:  46; 6HR MAX TEMP:  47;

GREENCASTLE +  CLOUDY    46  43  87 NE7       30.15S
LAFAYETTE      CLOUDY    45  44  97 NE7       30.17S
6HR MIN TEMP:  44; 6HR MAX TEMP:  47;

TERRE HAUTE    CLOUDY    49  42  77 NE8       30.14S
6HR MIN TEMP:  49; 6HR MAX TEMP:  56;


$$

INZ030>032-037>040-046>048-054>057-064-065-290700-
CENTRAL INDIANA

CITY           SKY/WX    TMP DP  RH WIND       PRES   REMARKS
INDIANAPOLIS   CLOUDY    50  45  83 NE12      30.15R
6HR MIN TEMP:  50; 6HR MAX TEMP:  53;

-EAGLE CREEK   CLOUDY    50  46  86 NE7       30.15S
6HR MIN TEMP:  50; 6HR MAX TEMP:  52;

KOKOMO +       CLOUDY    47  44  90 E8        30.18S
6HR MIN TEMP:  47; 6HR MAX TEMP:  48;

SHELBYVILLE    CLOUDY    51  46  83 E10       30.14S
6HR MIN TEMP:  51; 6HR MAX TEMP:  54;


$$

INZ033-034-041-042-049-050-058-059-290700-
EAST CENTRAL INDIANA

CITY           SKY/WX    TMP DP  RH WIND       PRES   REMARKS
MUNCIE         CLOUDY    47  44  90 E12       30.16S
6HR MIN TEMP:  47; 6HR MAX TEMP:  51; 6HR PCP:  0.01;

RICHMOND +     CLOUDY    45  43  93 NE7       30.16S

$$

INZ060-061-067>069-081>083-085>088-290700-
SOUTHWEST INDIANA

CITY           SKY/WX    TMP DP  RH WIND       PRES   REMARKS
EVANSVILLE     CLEAR     51  47  86 NE5       30.10R
6HR MIN TEMP:  51; 6HR MAX TEMP:  59;

HUNTINGBURG *+ CLEAR     52  48  86 NE6       30.10S
6HR MIN TEMP:  52; 6HR MAX TEMP:  59;


$$

INZ062-063-066-070>080-084-089>092-290700-
SOUTH CENTRAL AND SOUTHEAST INDIANA

CITY           SKY/WX    TMP DP  RH WIND       PRES   REMARKS
BLOOMINGTON    CLOUDY    52  45  77 NE7       30.13R
6HR MIN TEMP:  52; 6HR MAX TEMP:  56;

MADISON *+     CLOUDY    52  46  82 NE8       30.13S
SEYMOUR +      CLOUDY    54  48  82 N6        30.12F

$$





USA.gov is the U.S. government's official web portal to all federal, state and local government web resources and services.